Location: Valdosta
(30.8330°N, 83.2790°W)
Time: 12:41:28
(UTC-05:00)

Daily predictions for brighter satellites

Satellite Brightness Start Highest point End
(mag) Time Altitude Azimuth Time Altitude Azimuth Time Altitude Azimuth
SJ-12 4.0 17:51:48 10° SSE 17:55:47 58° ENE 17:59:49 10° N
SL-27 R/B 3.9 17:54:33 10° NNE 17:57:14 19° ENE 17:59:52 10° ESE
CZ-4 R/B 1.4 17:54:02 10° SSE 17:58:13 78° ENE 18:02:24 10° N
Okean 1 Rocket 4.2 17:55:09 10° NNW 17:59:19 48° W 18:03:29 10° SSW
Tiangong 1 2.4 17:57:05 10° SSW 17:59:38 25° SE 18:02:11 10° E
Cosmos 1844 Rocket 2.9 17:56:13 10° SSW 18:01:46 74° WNW 18:07:24 10° NNE
Cosmos 1975 Rocket 3.7 17:58:57 10° SSW 18:03:11 58° W 18:07:26 10° N
CZ-2C R/B 2.4 18:00:00 10° SSE 18:04:49 70° ENE 18:09:51 10° N
COSMO-SKYMED 1 3.3 18:00:55 10° NNE 18:04:52 34° E 18:08:48 10° SSE
Cosmos 1544 Rocket 4.0 18:01:36 10° N 18:05:48 40° E 18:10:01 10° SSE
Cosmos 158 Rocket 4.0 18:00:49 10° N 18:06:08 63° ENE 18:11:16 10° SSE
Cosmos 1238 Rocket 2.2 18:05:45 10° S 18:08:46 53° E 18:11:38 10° NNE
Cosmos 1048 Rocket 4.3 18:04:14 10° NNW 18:09:33 78° WSW 18:14:54 10° S
Cosmos 1844 3.8 18:06:27 10° SSW 18:12:01 83° WNW 18:17:36 10° NNE
AQUARIUS 4.2 18:12:24 10° S 18:16:53 84° W 18:21:24 10° NNW
MOS 1 4.4 18:11:44 10° SSE 18:17:24 83° WSW 18:23:05 10° NNW
Cosmos 1975 3.8 18:16:10 10° NNE 18:19:34 25° E 18:22:56 10° SE
Cosmos 1536 Rocket 3.6 18:15:21 10° S 18:19:41 57° E 18:24:04 10° NNE
CORIOLIS 4.1 18:14:27 10° SSE 18:19:53 85° ENE 18:25:19 10° NNW
SPOT 3 Rocket 3.8 18:18:12 10° S 18:23:23 73° WSW 18:28:35 10° NNW
SMAP 3.4 18:20:43 10° S 18:25:19 68° WSW 18:29:58 10° NNW
YAOGAN 1 2.9 18:22:31 10° S 18:26:49 69° W 18:31:07 10° NNW
Cosmos 2278 Rocket 2.1 18:24:06 10° SSW 18:29:45 82° ESE 18:35:25 10° NNE
SL-24 DEB 4.2 18:25:34 10° N 18:30:18 70° E 18:34:58 10° S
SKYMED 3 4.5 18:30:35 10° NNE 18:34:57 83° ESE 18:39:16 10° S
COSMOS 2406 3.7 18:31:28 10° NNW 18:37:08 66° WSW 18:42:49 10° S
SL-8 Rocket 4.3 18:31:46 10° N 18:37:53 69° W 18:43:59 10° S
IDEFIX/ARIANE 42P 3.5 18:34:41 10° S 18:39:44 52° W 18:44:48 10° NNW
Cosmos 1484 Rocket 2.5 18:40:08 10° SSE 18:43:55 76° ENE 18:47:39 10° N
Okean 1-7 Rocket 4.2 18:40:29 10° SSE 18:44:38 36° E 18:46:43 23° NE
Cosmos 921 Rocket 3.6 18:43:57 10° SSE 18:47:44 34° E 18:48:30 31° ENE
Cosmos 2366 rocket 4.1 18:41:41 10° N 18:48:02 81° W 18:54:19 10° S
CZ-3B DEB 3.5 18:45:04 10° W 18:48:22 27° NNW 18:55:12 10° NNE
OTV 4 0.6 18:46:31 10° WNW 18:49:27 49° NNE 18:49:39 48° NE
Cosmos 2218 Rocket 4.4 18:43:37 10° NNW 18:49:50 67° W 18:55:57 10° S
SKYMED 2 4.2 18:48:41 10° N 18:52:57 58° WNW 18:57:11 10° SSW
Cosmos 1455 Rocket 3.5 18:51:09 10° NNW 18:55:31 62° W 18:59:53 10° S
Cosmos 2082 Rocket 3.9 18:56:11 10° N 18:57:45 16° NNE 18:57:45 16° NNE
Delta 2 Rocket 3.2 19:00:44 10° WSW 19:04:41 85° SSE 19:05:40 53° ENE
BREEZE-M DEB (TANK) 3.8 19:01:52 10° NW 19:06:08 51° SW 19:09:51 10° SSE
Cosmos 494 Rocket 4.1 19:05:01 10° NNW 19:10:15 77° WSW 19:15:29 10° S
NOAA 12 4.0 19:07:44 10° SSE 19:12:58 69° ENE 19:18:13 10° N
Cosmos 1809 Rocket 4.3 19:07:17 10° N 19:13:28 88° E 19:19:34 10° S
METEOR-M 4.1 19:08:33 10° SSE 19:13:45 58° ENE 19:18:59 10° N
Cosmos 1500 3.4 19:10:56 10° N 19:14:45 71° W 19:18:34 10° S
Hubble Space Telescope 3.0 19:12:55 10° WSW 19:16:02 21° SSW 19:18:14 14° SSE
Meteor 2-4 Rocket 3.6 19:12:11 10° S 19:17:28 54° E 19:17:59 51° ENE
Meteor 1-28 Rocket 4.2 19:15:04 17° N 19:17:43 45° WNW 19:21:20 10° SSW
ATLAS 2AS CENTAUR R/B 2.9 19:10:31 10° NNW 19:18:31 87° WSW 19:25:49 10° SSE
Palapa 6 Rocket 4.5 19:15:19 10° WSW 19:20:37 34° S 19:22:06 29° SSE
Cosmos 1821 Rocket 3.9 19:17:35 10° N 19:23:33 55° E 19:29:29 10° SSE
Tiangong 1 3.7 19:33:02 10° W 19:34:09 18° WNW 19:34:09 18° WNW
Meteor 2-8 Rocket 4.2 19:31:28 10° S 19:37:28 70° E 19:37:40 69° E
GEOS 3 Rocket 4.0 19:39:08 19° SSE 19:42:47 61° WSW 19:47:51 10° NW
ATLAS 3B CENTAUR R/B 2.8 19:45:05 10° W 19:59:40 74° S 20:00:11 71° SSE
Aurora 2 Rocket 4.3 20:03:43 10° WSW 20:13:38 58° S 20:13:55 58° S
FALCON 9 R/B 3.3 20:13:17 10° W 20:26:27 58° NW 20:26:27 58° NW
